2025-226D

Last updated on Mon Oct 20 2025 00:02:08 GMT+0000 (Coordinated Universal Time)

1 65944U 25226D 25290.94606692 .00005247 00000+0 27159-3 0 9999 2 65944 97.6632 5.1263 0019022 287.2735 72.6416 15.16523614 1021
UTC large
Height (km)
Speed (km/s)
/
Latitude / Longitude
Inclination (degrees)
Orbital Period (minutes)
Azimuth
Elevation
Range (km)
Doppler Factor

Next 0 passes for location: London (51.5072 / 0.1276)

Sorry there are no passes over London.